CAPE
0 0 0 0 0 0 0 0 0 0 0 24 111 59 175 358 126 714 958 1063 1066 996 920 760 396 1226 1453 1669 1567 920 828 314 76 61 44 72 67 32 20 18 0 4 22 28 46 22 54 81 190 144 399 462 1217 1550 1214 1106 1429 1924 1794 2055 1902 2516 2328 2286 2013 1850 1667 1370 1431 1371 897 1013 958 1419 1331 811 520 868 1104 1710 2502 3258 2949 3336 3461 3735
0 0 0 0 0 0 0 0 0 0 2 4 55 85 32 168 496 500 926 858 1441 732 748 495 546 1158 1067 1246 1280 1150 410 301 359 77 68 75 48 38 34 20 0 14 41 32 37 50 51 68 137 212 347 847 1603 1456 1400 1740 1822 1891 1642 1770 1868 2276 2387 2550 2319 2706 2210 1791 1446 1214 799 706 854 1392 1422 1066 896 699 921 2854 3030 3100 3064 3364 3466 3532
0 0 0 0 0 0 0 0 0 6 4 0 2 131 94 124 700 817 524 816 1075 862 646 628 757 530 1063 1330 1551 1013 449 477 909 488 98 109 83 87 50 34 12 7 45 27 28 62 55 150 124 189 470 1134 1207 1260 1479 1578 1512 1546 2188 2392 2229 2230 2426 2341 2421 2734 2786 2363 1752 1115 816 848 706 922 866 688 682 1118 1292 1874 2404 3132 3433 3827 3272 3318
0 0 0 0 0 0 0 0 0 1 3 0 0 2 300 313 368 476 574 1076 785 936 566 355 727 1019 1202 924 1316 1416 1133 787 1024 1173 681 615 108 76 57 69 14 10 46 40 42 97 92 236 259 397 938 1380 1215 1252 1687 1468 1441 1712 2502 2682 2540 2718 2662 2784 2622 2693 2246 2074 2079 1724 1162 1025 862 1134 1279 1381 1295 1404 1631 1835 2062 2880 3494 3566 3059 2682
0 0 0 0 0 0 0 0 0 0 1 3 0 1 321 334 580 251 849 846 780 639 738 412 382 577 1028 822 1030 1175 1723 1326 976 1019 812 923 375 93 98 87 34 39 46 47 53 113 148 303 338 671 883 1281 1240 938 1250 1366 1414 1721 2204 2360 2669 2765 3045 2617 2983 2914 2947 2983 2849 3238 2205 1348 1928 1713 1542 1438 1241 1352 1697 1862 2187 2553 3094 3326 2804 2618
0 0 0 0 0 0 0 2 32 0 0 0 0 0 303 402 39 745 879 817 726 413 349 264 126 438 626 780 778 840 1403 1582 1554 932 749 775 196 69 83 96 66 66 69 47 77 131 252 366 598 937 667 859 1152 1212 1056 1412 1444 1662 2027 2272 2718 3084 2983 2753 2741 3152 3080 3044 3167 3325 2950 2676 2420 2447 1978 1745 1376 1094 1324 1213 1571 2282 2570 2907 2837 3285
0 0 0 0 0 0 0 1 7 0 0 0 0 85 359 452 714 568 822 545 302 279 505 553 91 173 867 840 1232 898 1357 1288 1593 968 608 669 837 124 136 138 71 85 87 77 56 124 368 498 652 660 574 1008 660 877 1015 894 1709 1788 2024 2411 2909 3027 2845 2820 3248 2919 3259 2941 2826 2478 2149 2112 2264 2402 2145 1950 1145 1350 1396 1448 1784 2411 2234 2911 2423 2586
0 0 0 0 0 0 4 0 0 0 0 0 0 248 323 191 826 602 510 342 950 613 540 330 188 183 165 280 1186 1118 1344 1343 1490 1210 913 1430 845 169 50 75 111 112 177 144 100 187 430 583 954 1203 512 673 514 808 778 1100 2017 2368 2552 2485 2849 3025 2965 2816 3256 2989 3343 3116 2857 2536 2063 1941 2104 1659 2140 1984 1828 1428 1774 1790 1692 1973 2325 2800 2978 2908
0 0 0 2 3 5 3 0 0 0 0 10 1 7 0 0 2 250 539 425 383 164 439 415 311 239 314 533 1232 1089 1186 1077 1348 1141 1032 1005 1032 253 42 171 116 114 179 107 98 141 168 714 1175 528 596 562 294 478 419 1333 2022 2851 2519 2744 2871 2843 2990 3435 3143 3174 3110 3264 2881 2612 1977 2410 2139 1915 2119 1772 1649 2039 2042 1936 2152 2446 2093 3038 3317 3223
0 0 0 15 2 8 0 0 0 0 0 0 1 0 0 4 1 30 58 160 256 121 233 349 309 207 134 463 527 834 644 920 1161 927 944 926 706 585 110 128 135 123 175 133 109 131 129 244 615 646 452 435 208 493 580 1671 2283 2589 2696 2747 2811 2888 2894 3096 3289 3306 3775 3338 3172 3093 2764 2454 2844 2855 2513 2005 2230 2715 2574 2277 2624 2737 2889 2475 3105 3408
0 0 0 1 2 0 0 0 0 0 0 10 1 5 0 0 0 1 4 9 41 54 68 252 352 156 151 320 542 503 376 675 964 893 908 891 839 450 175 125 106 111 156 140 111 134 243 159 432 336 309 222 239 428 484 1481 1992 2126 2230 2756 2844 2929 3145 3109 3204 3119 3450 2694 3233 3419 2992 2772 2707 2649 2820 3007 2645 2898 2656 2673 2207 2836 3252 2864 2645 2701
0 0 0 3 0 0 0 0 0 0 0 2 1 0 0 4 0 2 2 7 20 62 66 85 199 198 190 477 480 490 424 640 920 791 672 951 790 735 523 112 186 112 166 122 101 118 208 436 500 266 325 350 376 637 431 986 1446 2211 2498 2667 3058 3328 3151 3067 2669 3066 3274 2721 3088 3178 3170 3294 3150 2540 2074 2635 2658 2645 2553 2437 2642 3194 3213 3104 2711 2995
0 0 0 0 0 0 0 0 0 0 0 0 0 0 2 22 1 3 14 92 106 206 675 398 180 342 136 518 588 530 422 379 1022 1080 710 654 756 868 654 220 146 148 144 313 188 161 114 163 239 196 591 1429 1360 1423 713 861 1010 1279 1681 2517 2999 3372 3377 3114 2841 2936 3136 3130 3348 3984 3578 3456 3358 3065 2899 2752 2752 2668 2781 2711 2671 3285 3381 3406 3388 2952
0 0 0 0 0 0 0 0 0 0 1 0 0 0 2 4 83 30 76 160 237 229 533 807 380 417 546 485 112 505 572 631 832 1204 1238 1106 1081 1073 1147 1076 186 85 134 173 93 186 178 349 148 550 668 1104 857 669 647 771 993 1509 1608 2410 2603 3202 3234 3215 3041 2860 3128 3230 3835 3532 4040 3989 3606 3305 2743 2634 2059 2048 2551 3071 2680 2203 2374 3213 2836 2320
2 0 0 0 0 0 0 0 0 0 0 0 0 0 4 2 68 47 92 224 137 211 272 341 426 275 411 736 514 742 558 893 1184 1364 1437 1298 1400 1349 1078 688 684 110 384 435 87 101 184 342 524 264 380 506 1024 572 278 670 1483 1978 2008 2499 2864 2860 3055 3266 3146 3260 3218 3334 3468 3399 3376 3713 3483 3583 2875 2725 2416 2259 2112 1987 2274 2766 2319 2461 2702 2784
0 1 0 0 0 0 0 0 0 0 2 2 0 0 0 0 67 80 30 156 29 152 266 385 426 327 471 759 1253 575 446 927 602 1088 1702 1505 1124 1426 1064 849 532 157 118 123 150 266 459 593 650 540 154 763 1240 1162 638 616 1662 1265 2111 2386 2730 2691 2652 2895 3297 3023 3158 3150 3048 3785 3257 3517 3089 3452 2874 3742 4179 3586 2673 2722 3056 3584 3760 3203 3186 2997
0 0 0 0 0 0 0 0 0 0 3 2 0 0 0 0 13 203 74 36 178 31 270 57 364 579 718 978 821 693 455 930 734 1692 1604 1313 1148 1407 1025 741 837 367 220 108 113 228 407 381 407 260 462 384 932 822 586 1380 1410 1761 2180 2064 2455 2692 2387 2466 3020 2928 3129 3156 3484 3217 3105 2856 2529 2537 2330 2284 2764 2148 2688 3229 3356 2840 2950 2729 3301 3280
4 21 2 0 0 0 0 0 0 0 0 0 0 0 0 0 0 75 188 82 193 91 244 68 233 490 355 357 771 771 719 1012 1477 1761 1772 1204 1234 1207 1241 1000 717 291 249 258 247 260 204 249 323 194 181 410 480 859 421 1468 1075 1910 1867 1951 2329 2618 2676 2495 2478 2450 2628 3016 3342 3114 3269 3209 2912 1950 1798 2152 2716 2183 2549 3143 3225 2398 3088 2804 2283 2479
0 0 0 1 0 0 0 0 0 0 0 0 0 0 0 1 0 2 109 99 57 14 8 4 162 413 441 400 892 849 604 870 1298 1520 961 1266 1306 1114 1006 793 534 494 270 214 208 275 162 212 197 767 492 297 419 1041 943 822 616 1152 1303 1826 2080 2144 2124 2036 2018 1911 2379 2511 2629 2290 2342 2634 2880 2190 2119 2308 2393 2528 1961 2314 2175 2278 2245 2216 3029 3330
0 0 4 7 0 0 0 0 0 0 0 0 0 0 0 0 2 5 26 119 119 147 117 330 284 175 230 686 704 825 709 735 985 1088 1078 902 919 779 613 502 850 734 1007 308 423 170 144 149 187 893 872 348 724 814 498 708 564 754 880 1433 1736 1826 1773 1917 1554 2238 2292 2212 1995 1948 2409 2826 2992 3019 2497 1935 2647 2108 2156 2630 1623 2283 2186 1900 2687 2624
0 2 0 6 0 0 0 0 0 0 0 0 0 0 0 0 0 1 34 30 170 62 0 389 280 260 665 1236 743 558 658 798 615 1005 1017 1012 1231 821 714 898 901 753 979 915 315 243 127 194 256 767 693 614 676 784 601 650 415 862 655 730 972 1477 1346 1287 980 1517 1882 2158 2096 2583 2186 2024 2520 2086 1861 2072 2397 2285 2269 2210 2232 2232 2949 2423 2560 2386
1 0 2 3 0 0 0 0 0 0 0 0 0 0 0 0 0 0 1 0 15 37 0 62 350 587 752 1151 1045 1058 852 499 555 743 829 1050 1174 1091 874 1161 1446 1212 1644 1727 642 191 108 304 390 326 657 903 2898 1491 1042 571 522 867 353 368 367 1275 1630 1645 1173 1550 1796 1823 1632 1160 1718 1858 1913 2174 2066 1709 2471 2600 1587 1671 2492 2695 2367 2190 2750 2265
0 2 0 0 0 0 0 0 0 0 0 0 0 0 0 0 0 2 0 0 2 19 14 261 387 348 472 1258 1181 686 931 885 560 526 888 992 938 1046 962 874 1158 1244 1712 1572 1129 286 256 230 326 305 692 1297 1288 1745 1999 1074 1698 287 327 713 707 1616 1595 972 1100 1494 2057 1776 1568 1721 1385 1575 1903 2001 1906 1929 2180 1548 1650 2085 1856 2038 2372 1834 1925 2633
0 0 0 0 0 1 0 0 0 0 0 0 0 0 0 0 0 1 1 16 37 12 52 244 220 454 699 1428 1135 1246 987 791 564 845 885 860 1082 1587 1655 765 823 1495 1239 1128 1596 3762 2371 752 676 970 1082 1641 1927 2430 2135 2782 1597 1162 1133 392 751 921 867 506 1250 2140 2239 2142 1758 837 1169 1623 1579 1266 1210 1415 1614 1726 1748 1760 1569 2187 2015 1475 1719 1993
0 0 0 0 0 4 4 0 0 0 0 0 0 0 0 0 0 0 0 0 1 10 30 334 338 110 884 927 792 864 938 778 668 722 691 1025 1154 1295 1677 2478 1609 1956 1410 1324 2158 2922 3937 3452 1188 1480 1476 2073 2852 2625 2498 2425 1578 1751 1090 1191 1844 1546 1362 1372 1701 2304 2407 2017 1860 1051 1152 914 912 960 1033 1058 1036 1842 1626 1515 1782 2006 1854 1496 1681 1636
0 11 7 0 2 5 11 1 0 0 0 0 0 0 0 0 0 0 0 46 0 0 0 274 332 357 536 516 1093 1025 830 966 1056 1194 930 1261 1412 1157 1054 1252 1586 2043 1829 2086 2528 3338 3777 3668 3685 3181 3242 2408 2205 2744 2446 1773 1806 1095 1202 1480 2190 2393 1437 2543 2224 2461 2691 2080 1983 2244 1304 803 684 667 752 750 765 670 1044 1269 1214 1476 1456 1534 1285 1396
0 0 9 1 0 6 238 30 8 8 0 0 0 0 0 0 0 0 0 5 0 0 35 592 592 777 526 556 814 768 534 694 952 624 939 1192 1321 1137 981 1201 1311 1635 1695 1996 1822 2177 3261 3409 3223 3484 2075 2230 2192 2443 1970 1744 1078 1088 1443 1826 2311 2469 1958 3019 3242 2700 3078 2581 2372 2572 2288 1096 760 918 430 591 439 357 364 813 828 1435 1664 1243 1373 1186
0 0 0 0 0 0 0 0 0 13 6 0 0 0 0 0 1 0 0 0 112 0 25 440 930 942 730 694 709 604 493 606 584 858 883 957 1138 1274 1389 1278 1450 1545 1691 1510 1402 1237 1591 2791 2810 3018 3051 1910 1269 999 1393 1316 740 1110 766 898 2575 2581 2661 3642 3446 3324 3384 2936 2965 2987 2550 2690 2083 1477 1388 1102 1176 1081 419 268 378 627 1269 1294 1352 821
0 0 0 0 0 0 0 0 4 4 0 0 0 1 0 0 0 0 0 0 0 8 504 431 724 976 741 898 782 619 537 606 702 800 751 1170 1142 1035 1071 1110 1092 1109 1255 1421 1046 1379 1237 1555 2062 2411 2517 1725 1158 1198 1604 1762 1554 1208 1340 1177 1484 1442 2336 3049 3184 3327 2613 3054 3230 3327 2793 2762 2898 2339 2147 2389 2748 1199 835 600 542 818 834 1180 1077 546
0 0 0 0 0 0 0 0 0 0 0 0 0 0 0 0 0 0 0 1 0 402 591 641 627 617 532 868 735 875 956 1011 822 714 635 872 1256 1105 1162 1024 1033 969 915 1097 905 1129 1274 1833 2070 1911 1814 2085 1860 1348 1216 1264 1760 1721 1643 2147 2401 2066 1856 2016 2349 2934 2376 1917 1803 1883 2610 3277 2987 2565 2005 1708 2111 2421 2042 866 711 254 399 543 568 780
0 0 0 0 0 0 0 0 0 0 1 0 0 2 2 0 0 0 0 0 1 111 409 744 874 746 644 886 1053 1249 1244 963 811 736 687 982 1092 1069 1072 1000 908 737 591 719 722 607 1747 2143 2222 2171 2062 2164 2441 2982 1607 2617 2604 2394 2466 2405 2349 2081 2011 1922 2567 2029 1793 2117 1765 1181 1249 1483 2491 3022 3369 3373 2979 2900 2351 1592 736 1267 2246 1042 810 2123
0 0 0 0 0 0 0 0 0 0 0 0 0 0 339 219 31 174 330 360 398 184 809 754 811 1000 853 1162 1321 1412 1163 951 987 945 762 721 710 896 967 959 851 836 784 770 687 863 952 1355 1638 1915 1903 2197 2204 2622 2743 2668 3026 2912 2547 2130 2422 2128 2070 1744 1977 1948 2548 2539 2264 2043 2014 2122 2330 2045 2030 2771 2969 2592 2409 1974 2099 1848 1522 826 597 857
2 1 0 0 0 0 0 0 0 1 4 2 275 434 224 128 236 337 502 472 580 587 424 340 656 1149 1028 1198 1352 1179 1028 1044 906 809 810 702 719 687 762 703 668 711 740 847 955 861 938 1103 1256 1524 1567 1408 1537 1605 1415 1621 1970 1984 2044 1874 1842 2076 2100 1695 1612 1765 2072 2244 2228 2321 2445 2230 2486 2198 1960 1969 2413 2882 2291 2584 2684 2180 1417 1313 1427 1634
0 0 0 5 0 0 0 0 0 0 0 126 525 376 250 389 479 594 644 545 764 398 410 639 906 1080 1234 1353 1257 1158 991 965 797 886 736 639 665 637 608 630 658 627 678 736 893 890 1050 1049 1096 1202 1408 1414 1365 1165 1053 1096 1124 1032 1408 1721 1765 1998 1899 1871 1713 1595 1759 1808 1509 1713 1767 1608 1563 1778 1944 1736 2018 2393 2391 2485 2243 2127 1594 1487 1365 1634
0 4 0 3 0 7 0 0 0 0 45 272 293 224 308 332 555 619 750 817 903 985 561 687 1056 961 1212 991 1135 1083 824 771 817 726 648 632 528 557 509 395 383 510 516 588 688 767 835 839 802 843 1093 1231 1171 1128 1102 950 913 789 966 1343 1442 1656 1617 1376 1550 1592 1815 1821 1746 1339 1347 1421 1238 1194 1333 1489 1611 1673 1645 1591 1644 1745 1857 1588 1408 1564
3 0 2 0 0 0 0 21 0 2 160 178 93 136 103 441 241 515 703 813 926 895 840 638 773 931 996 1120 985 795 834 822 696 612 566 526 424 375 312 255 358 385 373 393 426 469 483 434 470 561 696 843 916 978 968 1054 962 876 818 781 1044 1142 1248 1193 1184 1288 1622 1470 1294 986 1066 1119 1199 1248 1083 1384 1380 1383 1449 1562 1555 1519 1559 1605 1495 1215
0 0 0 0 0 5 0 6 460 73 223 69 328 31 101 370 425 589 682 754 742 802 728 759 730 903 1101 1010 870 757 745 681 612 636 484 441 340 284 278 271 229 288 298 323 322 318 397 411 417 433 477 544 595 610 737 827 896 936 885 806 698 621 534 724 820 853 1085 1279 1193 874 736 1009 1036 1052 1053 770 801 973 1024 1014 1298 1297 1328 976 1018 996
0 0 0 0 0 0 21 2 9 264 180 104 92 124 92 49 254 639 615 670 810 824 832 1022 975 885 874 813 692 741 742 733 678 512 408 364 239 207 182 152 143 257 276 322 370 338 374 395 390 454 442 468 463 429 453 497 523 625 614 620 633 420 321 265 252 337 371 383 385 411 410 447 515 578 657 660 712 718 794 996 926 645 755 790 822 872
0 0 0 0 9 5 2 1 19 3 254 86 31 32 27 13 232 222 481 533 508 803 732 859 910 988 842 901 745 619 738 666 588 526 328 228 228 158 166 90 111 274 343 336 316 288 368 357 363 398 376 382 385 370 353 364 348 341 359 346 309 286 282 281 225 157 181 196 301 348 340 372 387 388 330 357 337 386 456 423 358 408 484 569 599 644
0 0 0 0 0 1 8 16 66 64 368 433 173 71 2 34 171 274 267 394 266 1029 845 696 565 732 827 638 791 575 724 739 615 388 222 95 107 119 50 112 41 88 257 325 339 317 311 329 340 353 352 320 333 380 351 347 312 297 282 256 310 276 228 200 115 150 201 154 151 218 273 260 277 303 319 281 239 259 276 272 313 351 357 384 376 398
0 5 0 2 0 0 0 1 84 192 197 82 96 99 76 25 13 211 217 182 172 775 1061 577 491 533 598 716 574 665 438 548 607 320 172 29 14 2 0 0 0 114 251 302 346 307 255 272 321 352 350 328 329 304 265 272 296 279 270 268 273 198 128 177 232 236 101 106 130 159 250 272 304 278 224 198 216 264 271 300 293 300 306 222 215 179
2 29 36 0 3 5 6 0 246 239 162 34 276 186 371 104 129 306 6 405 782 905 593 372 453 468 353 366 416 361 467 806 347 259 174 84 125 156 21 0 0 0 1 183 250 261 247 222 247 264 272 256 238 54 0 0 0 0 175 226 243 183 140 135 126 0 0 72 64 54 82 73 74 107 140 143 154 131 95 117 131 151 134 138 155 151
71 18 114 110 240 50 224 37 0 28 216 40 278 204 345 439 47 643 611 569 833 648 572 406 287 355 421 431 366 370 443 623 362 205 173 142 144 124 76 0 0 0 0 0 6 219 231 213 242 239 255 249 224 198 116 0 0 0 0 118 64 0 0 0 0 1 4 4 14 22 31 21 0 0 1 53 119 176 129 104 62 15 9 2 0 0
221 170 179 110 340 559 11 89 95 132 188 62 318 322 334 550 579 676 1054 660 786 571 456 457 561 506 488 503 361 537 693 308 332 266 10 116 101 104 37 0 0 0 0 0 0 0 142 212 237 281 283 314 260 192 116 0 0 0 0 0 0 0 0 0 0 1 4 1 0 2 11 8 0 0 1 12 58 140 136 134 147 168 109 44 54 11
375 534 464 262 580 444 330 301 272 220 53 79 436 471 339 611 765 645 774 976 973 850 581 479 449 414 613 567 389 351 482 420 683 1056 171 41 55 0 0 0 0 0 0 0 0 0 114 228 223 202 225 276 252 168 62 71 0 0 0 0 0 0 0 0 0 0 0 0 0 0 0 0 45 25 10 11 17 12 10 31 24 20 21 11 16 14
378 556 596 544 529 423 333 354 362 351 193 208 341 525 549 495 762 776 621 1006 1055 1021 868 574 327 481 632 775 660 380 190 84 391 600 397 89 87 116 0 0 0 0 0 0 0 0 0 0 6 105 148 180 186 176 58 134 127 106 98 0 0 0 0 0 0 0 0 0 0 0 0 0 0 1 7 12 40 7 53 38 41 21 1 2 0 1
187 286 204 331 330 187 286 442 467 426 320 321 389 427 429 470 842 817 836 1072 1024 1223 1302 1089 533 481 517 670 499 536 495 525 477 710 522 9 152 61 0 0 0 0 0 0 0 0 0 0 0 0 0 11 94 109 103 67 72 87 52 0 0 0 0 0 0 0 0 0 0 0 0 1 0 0 0 0 0 3 16 56 3 0 47 87 17 14
33 84 584 78 171 166 236 304 238 201 281 232 310 380 562 703 637 604 774 1160 1164 965 1032 911 901 521 740 763 752 803 651 508 422 201 65 138 104 92 40 7 2 0 0 0 0 0 0 0 0 0 0 0 43 61 69 72 81 54 0 0 0 0 0 0 0 0 0 0 0 0 0 0 0 0 0 1 2 1 0 0 0 0 0 0 0 0
2 33 40 180 279 141 182 172 174 141 202 291 315 278 202 196 506 536 552 509 859 854 670 678 532 750 671 729 670 387 527 552 734 869 706 653 415 293 32 134 26 0 0 0 0 0 0 0 0 0 0 0 0 0 0 0 0 0 1 0 0 0 6 0 0 0 0 0 0 0 0 0 0 0 0 0 0 0 0 0 0 0 0 0 0 0
277 297 66 122 37 93 59 111 170 80 158 229 354 248 238 315 370 341 468 650 621 614 499 634 571 524 453 506 513 561 647 692 624 534 456 471 524 398 326 113 55 1 0 0 3 0 0 0 0 0 0 0 0 0 0 0 0 0 0 0 0 1 2 0 0 0 0 0 0 0 0 0 0 15 28 0 0 0 0 0 0 0 0 0 0 0
571 867 526 714 242 338 243 434 607 510 519 540 464 393 353 182 217 300 463 674 705 368 660 681 626 506 386 354 318 547 641 668 748 702 736 568 473 355 224 211 74 72 50 24 4 0 2 9 1 0 0 0 0 0 0 0 0 0 0 0 0 0 0 0 2 3 0 0 0 0 1 0 0 1 26 18 4 0 0 0 0 0 0 0 0 0
Wind_Speed
nan nan nan nan nan nan nan nan nan nan nan nan 7 nan 16 13 7 11 11 14 13 12 10 11 13 13 11 11 12 17 18 10 nan nan nan nan nan nan nan nan nan nan nan nan nan nan nan nan 7 6 6 8 9 9 10 8 8 8 8 8 9 7 6 4 3 4 5 5 3 4 7 7 6 9 12 13 15 16 17 18 19 20 20 22 23 21
nan nan nan nan nan nan nan nan nan nan nan nan nan nan nan 7 11 12 13 12 13 10 12 12 15 13 14 14 13 18 19 11 12 nan nan nan nan nan nan nan nan nan nan nan nan nan nan nan 9 6 5 8 11 7 8 8 8 9 10 9 9 7 5 5 2 4 4 5 4 6 6 6 5 10 13 12 16 16 16 20 21 22 21 22 22 21
nan nan nan nan nan nan nan nan nan nan nan nan nan 17 nan 21 16 23 19 8 13 13 13 14 16 14 15 16 13 17 16 12 20 24 nan 7 nan nan nan nan nan nan nan nan nan nan nan 9 8 6 5 8 9 10 9 8 7 9 9 7 8 8 7 4 2 4 4 4 5 5 5 5 6 11 12 13 14 16 16 19 22 22 21 21 20 20
nan nan nan nan nan nan nan nan nan nan nan nan nan nan 21 20 16 17 18 11 12 12 20 13 17 20 18 15 14 15 18 21 20 15 25 17 8 nan nan nan nan nan nan nan nan nan nan 10 7 6 8 8 6 7 9 7 7 6 6 7 7 6 6 4 2 3 5 3 4 4 5 5 9 12 13 15 16 17 17 18 20 21 20 19 17 16
nan nan nan nan nan nan nan nan nan nan nan nan nan nan 27 15 16 13 16 16 11 11 18 22 20 15 13 11 13 15 16 22 21 21 16 20 11 nan nan nan nan nan nan nan nan 10 10 9 7 5 9 9 6 6 8 8 5 4 8 8 7 6 5 4 3 3 3 2 3 2 4 9 10 13 14 15 17 17 19 17 18 17 17 17 15 14
nan nan nan nan nan nan nan nan nan nan nan nan nan nan 28 17 nan 20 20 20 13 8 8 18 16 10 9 12 11 12 12 19 24 20 15 16 11 nan nan nan nan nan nan nan nan 9 10 7 8 6 9 7 8 7 7 7 6 5 6 7 5 3 4 4 4 1 2 3 3 3 5 8 11 13 14 16 16 16 17 16 15 13 13 12 13 11
nan nan nan nan nan nan nan nan nan nan nan nan nan nan 36 22 22 23 21 19 14 9 12 14 nan 13 9 10 10 13 11 15 23 19 14 16 15 10 11 11 nan nan nan nan nan 10 11 6 8 7 6 6 9 9 7 5 8 7 6 6 5 4 3 4 4 3 1 2 3 4 5 7 11 13 15 18 17 16 17 14 12 12 10 10 10 8
nan nan nan nan nan nan nan nan nan nan nan nan nan 32 30 26 22 22 17 15 14 12 11 10 12 16 12 7 11 13 13 14 18 19 16 16 15 10 nan nan 9 11 10 10 nan 10 11 6 8 6 8 6 10 8 8 8 8 7 5 6 5 2 3 4 4 3 1 2 2 5 6 8 11 12 15 17 16 16 16 12 10 9 8 9 9 8
nan nan nan nan nan nan nan nan nan nan nan nan nan nan nan nan nan 20 14 10 9 12 10 5 7 12 11 11 14 12 12 13 14 18 17 15 14 9 nan 7 7 10 10 9 nan 10 11 9 7 7 8 8 9 8 7 10 8 7 6 5 5 4 2 3 4 3 1 2 3 5 6 9 12 13 14 16 16 15 14 10 9 8 7 7 8 6
nan nan nan nan nan nan nan nan nan nan nan nan nan nan nan nan nan nan nan 11 8 4 6 6 10 12 13 17 12 11 10 12 13 18 20 17 14 12 7 8 8 11 10 11 10 10 11 12 8 8 9 9 9 8 10 12 9 7 6 5 6 5 2 2 3 2 1 1 4 6 7 8 13 16 15 15 14 13 12 9 7 6 5 5 5 5
nan nan nan nan nan nan nan nan nan nan nan nan nan nan nan nan nan nan nan nan nan nan nan 10 15 6 11 9 11 14 11 17 18 20 24 19 15 10 7 8 9 11 10 13 10 10 11 12 10 9 9 9 10 8 10 10 9 8 7 6 6 5 2 2 2 1 1 1 4 6 7 9 10 11 15 15 13 12 11 8 5 5 3 5 3 3
nan nan nan nan nan nan nan nan nan nan nan nan nan nan nan nan nan nan nan nan nan nan nan nan 14 12 10 11 8 7 18 18 20 17 21 17 13 15 13 10 9 11 11 12 11 11 12 13 10 10 10 10 13 10 9 10 9 8 8 8 6 4 3 3 2 1 0 1 3 4 6 7 10 12 12 13 12 11 9 7 6 5 4 4 2 3
nan nan nan nan nan nan nan nan nan nan nan nan nan nan nan nan nan nan nan nan 6 8 22 20 18 16 11 17 7 13 15 18 18 16 19 20 18 17 14 11 11 13 13 14 16 13 12 12 12 10 12 17 14 10 9 10 8 9 10 10 8 5 4 2 3 1 2 2 4 5 7 8 10 12 13 13 13 12 10 9 7 6 4 3 3 1
nan nan nan nan nan nan nan nan nan nan nan nan nan nan nan nan nan nan nan 13 12 21 26 18 17 17 14 13 11 19 19 21 22 19 21 26 25 20 17 18 14 nan 15 15 nan 15 14 15 12 13 14 16 11 9 10 9 10 10 10 10 9 7 4 2 3 2 3 3 3 4 7 9 10 12 13 14 12 12 12 11 10 7 5 4 3 2
nan nan nan nan nan nan nan nan nan nan nan nan nan nan nan nan nan nan nan 16 20 19 20 19 15 16 10 18 13 19 19 24 25 23 24 31 31 27 23 21 19 13 16 17 nan 15 14 15 15 14 14 13 13 10 12 11 11 12 12 10 9 9 6 4 4 3 3 5 4 5 6 7 11 12 13 14 14 15 14 12 11 10 8 7 5 5
nan nan nan nan nan nan nan nan nan nan nan nan nan nan nan nan nan nan nan 21 nan 19 18 15 16 12 14 17 13 20 20 21 23 21 24 32 31 29 27 22 19 15 17 15 16 17 18 16 17 16 14 14 14 9 14 14 12 12 12 11 10 9 8 6 4 4 4 4 5 5 7 6 9 11 13 17 18 16 15 14 14 14 14 10 10 9
nan nan nan nan nan nan nan nan nan nan nan nan nan nan nan nan nan 20 nan nan 12 nan 14 nan 14 16 19 17 17 20 21 19 17 14 19 28 28 27 24 23 24 22 18 17 18 18 19 18 15 16 15 14 13 11 16 16 13 13 13 12 12 10 8 7 6 6 4 5 7 7 6 5 7 7 10 13 13 13 15 19 16 16 14 11 14 12
nan nan nan nan nan nan nan nan nan nan nan nan nan nan nan nan nan nan 23 nan 16 nan 15 nan 8 15 12 15 13 16 16 16 13 9 15 21 23 22 21 22 25 24 20 19 19 20 18 17 14 15 15 14 14 14 16 16 14 16 13 13 13 11 9 8 7 7 6 6 7 7 6 7 6 6 8 11 12 15 15 18 16 16 17 15 15 13
nan nan nan nan nan nan nan nan nan nan nan nan nan nan nan nan nan nan 23 nan nan nan nan nan 7 15 11 15 12 11 13 13 12 11 11 11 12 15 19 21 23 23 23 20 18 20 18 17 14 16 16 15 15 15 14 16 15 16 15 13 13 12 11 10 8 8 9 7 8 7 6 5 6 7 9 12 11 12 13 14 15 14 16 16 17 14
nan nan nan nan nan nan nan nan nan nan nan nan nan nan nan nan nan nan nan 21 16 10 12 12 13 9 11 10 11 12 12 12 12 13 9 6 5 9 12 14 19 18 21 22 21 19 19 17 15 17 16 17 16 15 15 15 16 16 15 15 14 14 12 11 9 10 9 8 8 9 7 7 8 7 12 11 8 10 9 11 10 12 13 12 15 12
nan nan nan nan nan nan nan nan nan nan nan nan nan nan nan nan nan nan nan nan 20 nan nan 14 12 8 11 11 10 10 11 12 13 12 12 9 7 5 7 9 12 13 15 21 23 21 17 19 19 20 19 19 19 18 17 15 15 16 16 16 15 15 13 13 11 12 11 10 9 11 8 8 8 6 10 10 8 8 8 9 9 12 9 10 10 11
nan nan nan nan nan nan nan nan nan nan nan nan nan nan nan nan nan nan nan nan nan nan nan nan 17 10 12 11 8 11 9 8 12 13 16 9 8 5 5 6 10 12 13 18 25 24 17 20 23 20 21 28 29 23 19 17 15 19 16 19 17 18 16 15 14 15 13 12 11 11 10 9 9 8 9 9 10 8 8 10 11 11 11 7 9 8
nan nan nan nan nan nan nan nan nan nan nan nan nan nan nan nan nan nan nan nan nan nan nan 25 20 15 15 13 9 13 16 19 26 21 16 12 6 1 4 8 11 13 13 16 21 23 22 21 23 22 23 24 22 22 25 29 27 17 15 21 20 22 18 17 15 18 17 14 14 13 12 11 12 10 9 9 11 8 10 9 9 9 10 8 9 9
nan nan nan nan nan nan nan nan nan nan nan nan nan nan nan nan nan nan nan nan nan nan nan 20 21 21 22 19 14 17 18 23 23 18 8 9 7 5 7 8 11 15 17 15 20 28 29 26 25 25 24 26 24 28 29 29 28 30 27 20 22 22 20 19 19 20 19 17 15 13 14 13 13 11 10 10 10 9 11 9 9 10 9 7 11 10
nan nan nan nan nan nan nan nan nan nan nan nan nan nan nan nan nan nan nan nan nan nan nan 25 24 15 18 19 20 19 18 18 12 4 6 10 9 8 12 16 14 15 14 14 17 20 28 29 25 26 29 28 29 29 29 28 27 28 26 23 22 24 22 21 23 23 22 20 17 17 15 14 13 12 12 11 11 12 10 12 13 11 9 8 8 11
nan nan nan nan nan nan nan nan nan nan nan nan nan nan nan nan nan nan nan nan nan nan nan 26 27 20 18 11 13 17 18 16 14 15 9 10 13 17 15 13 14 18 20 15 18 21 24 27 31 29 30 29 30 29 29 30 28 26 24 18 18 24 23 23 26 25 25 22 20 19 17 17 15 13 13 12 11 12 14 15 13 14 11 9 11 13
nan nan nan nan nan nan 20 nan nan nan nan nan nan nan nan nan nan nan nan nan nan nan nan 33 31 30 22 12 9 15 16 13 14 19 15 11 14 13 12 10 4 12 8 14 21 22 21 26 31 32 29 33 34 32 30 29 24 21 20 13 18 24 24 25 27 26 26 24 22 21 20 19 18 17 15 15 14 14 15 16 15 19 11 12 11 12
nan nan nan nan nan nan nan nan nan nan nan nan nan nan nan nan nan nan nan nan 15 nan nan 29 31 29 26 25 21 15 14 10 10 17 19 15 18 14 13 11 10 8 7 13 14 18 20 25 29 30 32 31 33 31 32 30 28 25 22 16 24 30 31 31 29 26 26 25 23 24 22 22 22 20 20 20 19 17 16 16 16 17 19 18 15 13
nan nan nan nan nan nan nan nan nan nan nan nan nan nan nan nan nan nan nan nan nan nan 27 28 29 29 24 25 23 22 14 10 8 15 9 12 14 17 11 11 13 11 7 6 12 12 16 21 23 23 26 27 26 31 33 27 22 19 16 27 33 34 33 31 34 35 30 26 24 26 25 23 23 23 23 23 23 20 19 19 19 19 19 19 17 15
nan nan nan nan nan nan nan nan nan nan nan nan nan nan nan nan nan nan nan nan nan 24 41 39 36 35 27 24 23 23 20 22 20 21 11 9 12 17 13 10 12 13 12 7 5 10 10 15 17 17 21 22 23 27 29 23 21 23 30 29 30 34 26 32 37 34 28 28 30 31 27 25 25 25 25 25 24 25 24 21 20 19 19 20 19 19
nan nan nan nan nan nan nan nan nan nan nan nan nan nan nan nan nan nan nan nan nan 21 43 45 37 34 31 27 26 26 24 26 22 20 20 16 16 17 18 17 16 14 13 9 7 6 8 11 13 14 17 18 21 27 31 33 38 39 34 35 36 36 32 34 34 28 27 31 31 29 32 31 27 28 29 31 33 30 29 28 25 27 28 25 24 22
nan nan nan nan nan nan nan nan nan nan nan nan nan nan 38 37 nan 34 29 36 36 29 43 44 34 31 30 31 31 28 25 25 25 24 22 19 20 20 20 20 18 15 14 13 12 11 15 18 18 16 12 12 15 20 26 34 39 40 36 36 37 32 31 35 32 32 35 34 33 33 31 29 34 34 33 28 28 26 27 29 30 32 33 31 31 29
nan nan nan nan nan nan nan nan nan nan nan nan 22 38 41 43 47 46 46 47 46 43 40 37 36 35 31 30 31 27 25 26 24 25 26 26 27 27 26 24 25 25 23 22 22 21 21 22 22 22 24 24 19 19 22 27 33 35 35 37 38 37 36 37 37 40 40 39 37 35 28 28 34 32 30 29 24 25 25 28 29 32 32 32 31 28
nan nan nan nan nan nan nan nan nan nan nan 25 32 37 43 46 49 47 46 42 44 46 45 45 43 40 35 31 31 29 30 29 27 30 30 32 32 29 27 25 23 22 22 21 22 22 22 22 22 23 24 23 24 24 24 25 28 30 29 28 29 32 34 37 39 41 43 41 39 38 33 35 33 33 33 33 32 35 33 32 33 35 34 32 30 30
nan nan nan nan nan nan nan nan nan nan nan 29 30 38 40 41 41 42 43 44 42 43 45 47 44 40 35 32 32 33 33 34 33 34 33 33 33 29 28 26 24 22 22 22 23 23 22 21 22 22 23 25 26 26 26 26 26 26 26 24 24 24 28 33 38 43 45 43 40 38 35 33 34 37 36 37 36 36 35 36 35 34 34 33 32 32
nan nan nan nan nan nan nan nan nan nan 31 28 nan 39 39 40 41 34 42 48 45 41 38 42 43 40 36 35 35 34 36 38 36 35 35 35 34 32 30 27 25 24 24 24 25 25 24 23 23 23 23 23 25 26 26 26 26 26 25 24 24 24 26 27 31 38 44 45 43 40 38 36 39 39 38 37 33 29 29 33 38 36 35 35 34 35
nan nan nan nan nan nan nan nan 31 nan 29 nan 40 nan 39 36 40 43 42 44 47 43 39 36 37 38 37 37 37 38 38 37 37 35 34 36 37 36 34 32 31 29 28 28 28 28 29 28 28 27 26 26 25 26 26 26 27 28 28 27 26 24 25 27 27 29 35 40 41 42 43 43 43 42 43 40 35 29 30 35 41 41 38 38 38 38
nan nan nan nan nan nan nan nan nan 33 31 36 nan 35 nan nan 39 42 37 40 45 47 44 36 35 38 38 38 38 37 33 34 35 32 31 35 37 39 39 37 36 35 35 34 32 32 33 32 32 31 31 31 31 30 28 28 30 32 32 31 30 29 27 25 25 26 29 30 32 35 42 47 45 45 46 43 41 39 36 37 41 41 39 39 38 38
nan nan nan nan nan nan nan nan nan nan 29 nan nan nan nan nan 40 35 34 39 41 43 39 37 33 32 35 33 33 28 27 29 30 29 30 34 37 39 40 nan 38 38 39 39 38 38 38 37 37 36 35 35 36 33 32 33 34 34 33 32 35 36 35 32 29 29 28 26 27 31 38 46 50 50 49 49 48 46 43 41 42 43 42 40 40 40
nan nan nan nan nan nan nan nan nan nan 31 26 23 nan nan nan 34 33 30 33 38 36 37 36 30 26 26 28 28 27 28 32 31 29 29 nan 33 37 nan 39 nan nan 40 42 43 42 42 41 40 40 40 40 38 37 37 35 35 36 36 36 38 41 41 39 36 35 33 30 30 31 30 35 44 47 46 47 49 49 46 43 44 46 45 44 42 40
nan nan nan nan nan nan nan nan nan 29 30 nan nan nan nan nan nan 31 29 34 34 35 33 30 29 35 34 32 31 30 34 34 37 37 34 nan nan nan nan nan nan 40 40 42 43 42 42 42 43 43 43 41 41 41 40 39 38 37 36 38 39 40 39 38 37 39 37 36 37 37 33 29 32 36 37 38 43 47 47 44 45 46 45 45 44 41
nan nan nan nan nan nan nan nan 31 31 31 nan 32 23 25 21 28 29 nan 32 37 41 35 37 35 34 32 35 35 34 37 44 44 43 42 nan 40 38 nan nan nan nan nan 38 37 40 42 43 43 43 43 42 42 nan nan nan nan nan 37 37 39 38 35 33 33 nan nan nan nan nan nan nan nan 32 31 31 34 38 nan 42 44 45 46 45 45 44
nan nan 30 32 31 nan 32 nan nan nan 28 nan 36 22 29 25 nan 29 33 38 44 41 41 40 36 34 34 31 30 29 33 38 38 41 42 42 40 40 nan nan nan nan nan nan nan 37 37 38 40 41 41 40 40 40 41 nan nan nan nan 39 nan nan nan nan nan nan nan nan nan nan nan nan nan nan nan nan 33 33 32 32 nan nan nan nan nan nan
23 22 25 28 33 34 nan nan nan 28 25 nan 36 32 28 28 31 31 30 34 38 39 37 32 29 27 29 29 31 33 35 35 31 37 nan 36 38 39 nan nan nan nan nan nan nan nan 37 38 38 39 40 39 39 38 38 nan nan nan nan nan nan nan nan nan nan nan nan nan nan nan nan nan nan nan nan nan nan 31 32 32 30 30 34 nan nan nan
24 23 21 21 26 31 29 29 30 30 nan nan 31 32 32 34 34 32 33 35 37 39 38 37 32 26 25 30 32 28 33 36 37 34 31 nan nan nan nan nan nan nan nan nan nan nan 36 36 36 36 36 37 38 37 nan nan nan nan nan nan nan nan nan nan nan nan nan nan nan nan nan nan nan nan nan nan nan nan nan nan nan nan nan nan nan nan
15 21 20 25 27 32 35 32 31 34 34 31 30 31 33 34 35 35 36 36 38 36 36 36 37 35 32 32 35 33 31 nan 29 32 30 nan nan 32 nan nan nan nan nan nan nan nan nan nan nan 36 36 36 36 36 nan 34 35 36 nan nan nan nan nan nan nan nan nan nan nan nan nan nan nan nan nan nan nan nan nan nan nan nan nan nan nan nan
14 14 18 22 18 17 24 28 32 33 33 34 33 32 34 35 36 35 36 36 36 35 36 36 36 37 35 31 34 37 37 35 33 24 26 nan 29 nan nan nan nan nan nan nan nan nan nan nan nan nan nan nan nan 35 35 nan nan nan nan nan nan nan nan nan nan nan nan nan nan nan nan nan nan nan nan nan nan nan nan nan nan nan nan nan nan nan
nan nan 16 nan 20 22 21 24 30 32 31 31 30 31 34 35 35 36 38 37 35 36 37 37 35 36 39 36 34 38 39 37 34 31 nan 35 34 nan nan nan nan nan nan nan nan nan nan nan nan nan nan nan nan nan nan nan nan nan nan nan nan nan nan nan nan nan nan nan nan nan nan nan nan nan nan nan nan nan nan nan nan nan nan nan nan nan
nan nan nan 10 16 19 20 21 24 29 34 32 29 29 30 32 33 35 36 37 37 37 39 38 35 33 37 40 41 42 41 35 31 33 35 36 37 37 nan 37 nan nan nan nan nan nan nan nan nan nan nan nan nan nan nan nan nan nan nan nan nan nan nan nan nan nan nan nan nan nan nan nan nan nan nan nan nan nan nan nan nan nan nan nan nan nan
17 18 nan 12 nan nan nan 15 17 nan 27 29 29 29 31 32 30 30 31 35 38 39 36 35 35 35 31 32 33 35 37 35 36 35 35 31 33 35 37 37 nan nan nan nan nan nan nan nan nan nan nan nan nan nan nan nan nan nan nan nan nan nan nan nan nan nan nan nan nan nan nan nan nan nan nan nan nan nan nan nan nan nan nan nan nan nan
16 17 16 18 16 13 14 19 19 20 22 24 25 28 31 33 34 34 33 32 33 36 35 33 34 34 33 33 32 35 33 35 38 37 36 35 34 35 35 35 nan nan nan nan nan nan nan nan nan nan nan nan nan nan nan nan nan nan nan nan nan nan nan nan nan nan nan nan nan nan nan nan nan nan nan nan nan nan nan nan nan nan nan nan nan nan
Wind_Direction
nan nan nan nan nan nan nan nan nan nan nan nan 238 nan 242 259 232 257 250 262 272 260 251 257 254 254 262 242 226 213 203 196 nan nan nan nan nan nan nan nan nan nan nan nan nan nan nan nan 274 280 291 298 282 295 314 325 335 340 348 2 3 21 25 31 66 76 67 50 35 14 2 8 61 111 108 102 106 109 113 112 116 118 115 118 117 120
nan nan nan nan nan nan nan nan nan nan nan nan nan nan nan 288 258 262 259 277 261 248 247 258 255 261 267 247 223 221 226 190 167 nan nan nan nan nan nan nan nan nan nan nan nan nan nan nan 276 275 278 291 290 305 319 334 340 341 341 357 8 17 31 47 69 108 72 63 36 23 18 17 84 118 107 110 114 111 116 124 122 116 120 118 118 119
nan nan nan nan nan nan nan nan nan nan nan nan nan 222 nan 231 259 233 254 271 259 238 240 234 247 253 265 258 244 220 217 196 197 178 nan 243 nan nan nan nan nan nan nan nan nan nan nan 275 279 267 272 273 298 310 313 334 343 335 334 360 16 15 29 42 84 91 82 60 33 37 36 68 112 116 116 114 114 121 120 118 119 123 121 118 118 115
nan nan nan nan nan nan nan nan nan nan nan nan nan nan 242 254 257 238 239 276 234 233 228 248 251 223 237 238 242 233 209 204 196 184 186 179 234 nan nan nan nan nan nan nan nan nan nan 267 267 272 268 271 283 303 312 329 341 335 334 360 14 19 28 41 43 99 77 54 51 39 77 111 124 123 127 129 126 126 123 119 119 125 119 116 114 108
nan nan nan nan nan nan nan nan nan nan nan nan nan nan 245 261 251 257 259 256 239 193 213 244 232 215 217 254 240 224 218 212 205 197 190 180 207 nan nan nan nan nan nan nan nan 269 270 274 281 277 272 287 293 304 308 324 341 347 339 353 11 21 25 16 34 104 164 146 91 110 117 136 145 137 133 130 130 130 126 122 119 116 115 114 111 112
nan nan nan nan nan nan nan nan nan nan nan nan nan nan 280 279 nan 269 267 259 249 236 234 260 244 216 232 257 257 250 224 221 216 203 196 192 213 nan nan nan nan nan nan nan nan 256 261 266 263 264 275 280 287 274 301 314 331 330 337 339 3 359 24 15 6 299 169 137 99 88 128 134 137 139 136 130 132 129 122 119 117 115 107 107 112 111
nan nan nan nan nan nan nan nan nan nan nan nan nan nan 285 279 273 270 269 265 258 271 251 265 nan 232 232 268 264 257 247 234 219 209 209 200 202 224 219 237 nan nan nan nan nan 251 254 244 257 272 271 286 283 291 298 319 313 332 325 327 350 4 17 10 11 355 161 134 96 83 101 128 136 139 139 136 136 137 124 130 124 122 111 109 103 103
nan nan nan nan nan nan nan nan nan nan nan nan nan 256 262 269 269 266 259 250 247 238 255 268 237 226 239 240 254 257 262 249 226 218 218 212 201 215 nan nan 235 247 245 241 nan 254 261 235 259 245 271 260 277 283 295 299 304 319 315 325 333 342 3 29 22 6 49 159 109 98 121 135 139 139 147 142 147 142 136 143 129 123 117 112 117 117
nan nan nan nan nan nan nan nan nan nan nan nan nan nan nan nan nan 273 263 260 262 264 231 256 264 223 236 251 253 265 267 271 245 225 222 219 204 203 nan 230 251 244 244 249 nan 252 261 249 229 259 261 270 272 284 292 283 290 300 302 304 309 315 348 22 19 16 32 170 135 113 135 147 143 153 153 152 150 146 141 149 141 134 125 121 117 126
nan nan nan nan nan nan nan nan nan nan nan nan nan nan nan nan nan nan nan 276 279 266 252 296 291 238 237 255 262 266 258 297 276 229 219 223 209 188 226 233 241 237 228 243 248 253 254 255 248 230 254 264 264 270 263 269 281 286 287 291 303 308 337 16 18 46 359 202 163 156 155 155 165 168 158 159 158 162 156 156 150 143 136 112 111 112
nan nan nan nan nan nan nan nan nan nan nan nan nan nan nan nan nan nan nan nan nan nan nan 300 312 285 258 279 284 283 280 298 288 233 216 218 207 201 211 231 234 237 227 239 242 247 256 255 250 251 255 253 264 265 268 263 273 282 287 295 302 316 305 345 10 40 348 300 198 167 159 174 178 165 174 172 175 173 165 163 167 153 143 120 101 93
nan nan nan nan nan nan nan nan nan nan nan nan nan nan nan nan nan nan nan nan nan nan nan nan 298 301 254 279 287 274 252 285 302 269 229 222 221 213 204 220 232 238 231 239 239 245 254 250 248 249 246 256 259 250 262 269 277 280 282 284 281 288 301 309 339 31 270 224 220 182 184 183 176 182 180 177 184 182 179 174 180 178 166 139 126 132
nan nan nan nan nan nan nan nan nan nan nan nan nan nan nan nan nan nan nan nan 253 247 229 232 255 260 263 254 270 309 284 292 301 279 239 228 233 225 204 207 224 228 232 228 228 235 244 245 253 248 244 243 229 234 257 273 276 275 278 289 291 289 297 284 303 291 221 211 205 180 203 192 191 191 192 193 191 189 193 189 198 204 189 170 199 199
nan nan nan nan nan nan nan nan nan nan nan nan nan nan nan nan nan nan nan 221 241 245 254 263 256 253 250 265 291 316 299 293 292 280 238 224 229 227 213 195 217 nan 232 226 nan 231 232 243 237 239 240 243 242 249 255 262 260 262 268 276 289 288 276 264 279 276 240 235 205 201 211 206 204 202 201 203 202 203 204 201 212 219 220 221 215 262
nan nan nan nan nan nan nan nan nan nan nan nan nan nan nan nan nan nan nan 220 239 239 235 232 264 252 273 273 257 293 300 292 284 272 237 216 215 221 214 206 194 234 235 225 nan 233 238 240 241 244 238 244 244 248 264 254 247 251 259 261 269 277 283 277 274 260 261 227 224 219 222 210 217 212 212 210 208 217 215 219 225 223 234 242 240 250
nan nan nan nan nan nan nan nan nan nan nan nan nan nan nan nan nan nan nan 223 nan 241 248 252 261 248 242 254 261 282 296 296 291 284 242 213 209 213 215 211 200 223 237 233 237 235 236 241 236 239 239 237 241 228 252 258 244 249 254 259 266 272 282 283 268 264 250 248 229 222 226 209 225 222 221 221 216 221 225 228 233 237 235 237 254 255
nan nan nan nan nan nan nan nan nan nan nan nan nan nan nan nan nan 216 nan nan 240 nan 241 nan 276 260 261 249 261 287 300 305 310 284 236 217 215 216 217 214 211 208 230 231 238 234 237 242 236 238 238 235 238 233 242 245 252 253 260 266 267 264 270 275 270 277 258 256 244 237 233 210 232 232 239 240 239 241 234 238 237 247 253 247 257 267
nan nan nan nan nan nan nan nan nan nan nan nan nan nan nan nan nan nan 206 nan 216 nan 236 nan 262 270 276 255 262 287 297 309 323 301 239 226 229 228 221 219 219 226 224 228 230 234 238 241 237 238 239 237 230 227 246 253 257 256 262 270 270 269 264 268 274 279 269 256 259 252 231 226 217 232 236 243 242 242 243 248 245 250 259 265 268 269
nan nan nan nan nan nan nan nan nan nan nan nan nan nan nan nan nan nan 224 nan nan nan nan nan 281 258 252 257 270 288 287 301 312 279 245 243 240 233 228 228 231 232 251 239 234 233 235 239 237 230 237 241 235 235 223 252 255 258 262 268 273 275 272 270 260 264 258 265 258 253 255 254 231 211 238 230 226 239 247 254 257 251 258 267 265 266
nan nan nan nan nan nan nan nan nan nan nan nan nan nan nan nan nan nan nan 212 239 228 272 269 276 271 278 278 305 300 300 298 298 293 300 281 263 238 218 225 228 237 239 251 235 235 232 237 241 238 233 243 240 236 234 247 240 259 260 264 269 269 268 264 260 256 256 267 257 260 256 254 235 221 243 236 222 240 238 250 257 257 254 262 266 272
nan nan nan nan nan nan nan nan nan nan nan nan nan nan nan nan nan nan nan nan 218 nan nan 286 282 285 283 279 295 313 323 314 302 296 264 234 220 246 217 208 222 232 228 236 236 230 231 232 237 236 228 230 238 235 233 238 250 247 250 264 264 268 272 272 268 263 248 249 243 258 267 269 258 251 255 268 243 239 243 255 246 264 252 248 265 265
nan nan nan nan nan nan nan nan nan nan nan nan nan nan nan nan nan nan nan nan nan nan nan nan 261 261 277 279 270 273 267 281 285 280 258 252 210 218 245 246 235 241 222 221 226 228 224 228 231 238 231 223 218 219 224 238 241 239 246 257 254 255 252 254 257 259 246 244 246 255 258 262 261 256 249 262 265 250 247 250 254 249 260 260 244 256
nan nan nan nan nan nan nan nan nan nan nan nan nan nan nan nan nan nan nan nan nan nan nan 253 264 266 259 263 274 274 245 249 242 232 244 253 252 267 250 272 263 248 233 204 213 218 222 227 227 232 236 231 233 221 226 222 218 242 252 249 249 253 252 261 251 256 250 243 245 246 253 249 254 253 246 254 253 261 258 246 255 261 276 281 278 262
nan nan nan nan nan nan nan nan nan nan nan nan nan nan nan nan nan nan nan nan nan nan nan 251 248 241 243 239 242 249 245 246 242 253 259 251 245 220 215 265 249 251 234 197 190 207 216 219 225 229 235 230 226 230 227 224 227 220 217 239 253 256 258 261 252 252 255 250 252 258 253 246 247 256 259 260 253 255 263 257 264 253 253 258 275 282
nan nan nan nan nan nan nan nan nan nan nan nan nan nan nan nan nan nan nan nan nan nan nan 243 250 253 239 229 238 240 249 255 267 264 235 230 219 220 211 208 231 243 248 228 207 211 216 218 227 232 236 228 225 229 226 227 227 226 223 200 235 246 247 246 250 249 256 253 249 258 255 258 251 249 253 254 257 269 266 269 260 256 246 249 261 271
nan nan nan nan nan nan nan nan nan nan nan nan nan nan nan nan nan nan nan nan nan nan nan 240 251 251 254 212 229 247 249 248 233 224 194 190 203 218 206 203 202 226 221 227 225 223 225 226 223 229 234 233 232 227 226 224 218 224 222 203 233 246 248 242 249 249 254 254 250 245 254 259 258 256 253 247 246 254 263 259 259 259 259 253 253 250
nan nan nan nan nan nan 191 nan nan nan nan nan nan nan nan nan nan nan nan nan nan nan nan 233 259 265 265 276 245 233 236 242 227 223 223 221 236 237 236 239 260 237 232 227 226 215 226 232 226 218 224 229 227 224 224 220 223 217 224 217 247 247 246 242 244 249 252 254 253 249 247 255 258 256 258 254 247 247 248 262 267 269 258 262 257 270
nan nan nan nan nan nan nan nan nan nan nan nan nan nan nan nan nan nan nan nan 256 nan nan 238 262 271 268 282 286 258 228 211 193 223 225 237 239 239 261 264 253 235 205 234 230 213 210 232 227 220 217 225 223 221 217 215 216 218 222 194 237 236 231 226 232 244 248 250 251 256 253 246 249 253 250 253 252 244 251 251 252 259 263 251 244 244
nan nan nan nan nan nan nan nan nan nan nan nan nan nan nan nan nan nan nan nan nan nan 270 273 270 267 268 273 279 282 277 274 269 245 226 223 235 257 258 279 286 284 267 229 219 230 202 210 220 220 226 227 223 218 216 219 226 233 236 225 230 238 228 230 226 223 224 231 244 249 251 251 247 247 252 250 256 258 249 248 252 253 254 262 261 264
nan nan nan nan nan nan nan nan nan nan nan nan nan nan nan nan nan nan nan nan nan 267 279 270 263 258 257 262 268 274 275 276 273 271 263 266 258 260 277 283 275 272 269 251 206 221 212 199 203 209 218 229 231 230 231 230 230 233 238 243 240 246 246 241 235 230 225 227 221 219 232 246 245 247 248 246 248 251 254 251 249 254 257 253 253 248
nan nan nan nan nan nan nan nan nan nan nan nan nan nan nan nan nan nan nan nan nan 257 266 267 259 256 251 257 260 260 262 261 266 267 267 269 273 267 273 280 271 262 266 276 208 186 184 207 201 201 209 217 221 224 231 231 228 230 241 243 240 237 238 246 252 255 243 235 233 240 227 217 233 243 244 240 235 228 234 237 244 241 237 238 238 239
nan nan nan nan nan nan nan nan nan nan nan nan nan nan 207 201 nan 210 209 213 208 215 263 258 252 254 256 257 261 262 262 262 258 260 260 255 259 257 261 265 268 268 264 256 259 248 223 218 207 198 199 214 230 231 231 227 228 231 236 243 245 242 239 243 244 246 242 241 240 241 237 240 234 224 233 232 237 237 238 239 234 241 245 243 238 232
nan nan nan nan nan nan nan nan nan nan nan nan 207 205 203 201 203 208 211 211 210 214 249 248 246 254 260 261 263 262 260 256 257 257 258 254 246 248 248 249 245 246 247 247 247 249 243 231 225 219 213 208 215 227 225 224 226 232 238 244 246 244 239 241 244 245 242 240 239 243 236 236 246 244 234 231 228 238 243 246 246 247 246 244 242 236
nan nan nan nan nan nan nan nan nan nan nan 217 212 205 205 207 211 213 213 214 209 214 235 242 245 253 258 258 258 257 257 253 250 252 255 253 249 246 244 241 244 244 245 245 245 243 240 239 237 231 228 226 222 220 222 225 230 232 237 243 242 244 242 242 241 243 246 244 240 239 235 234 240 242 243 240 235 236 238 240 242 247 250 250 247 249
nan nan nan nan nan nan nan nan nan nan nan 209 209 214 213 214 216 216 218 217 210 215 235 242 249 252 254 254 255 257 255 253 256 255 251 248 249 247 242 241 241 245 247 245 245 245 245 245 240 236 234 231 231 231 233 234 234 238 243 244 243 239 243 243 243 244 245 245 246 247 245 240 239 239 242 242 232 232 236 236 241 243 244 246 248 248
nan nan nan nan nan nan nan nan nan nan 212 214 nan 220 222 223 215 216 225 216 211 211 228 244 249 250 255 259 259 259 259 256 256 254 252 249 247 246 246 245 246 249 250 248 249 248 250 250 246 244 242 241 242 240 241 243 245 248 251 254 255 254 252 245 245 247 245 243 245 246 247 244 240 240 244 244 237 229 232 235 237 240 244 248 248 245
nan nan nan nan nan nan nan nan 220 nan 212 nan 218 nan 219 219 213 215 219 219 213 215 228 248 253 258 257 260 262 259 256 253 251 248 253 253 249 246 247 245 248 250 251 252 252 253 255 254 254 254 254 254 255 254 253 254 256 256 256 256 256 254 253 252 250 248 247 244 241 242 244 247 247 245 243 244 248 248 244 239 240 239 240 245 247 249
nan nan nan nan nan nan nan nan nan 223 217 214 nan 205 nan nan 220 220 218 225 218 218 222 236 252 256 261 262 262 259 253 249 249 247 251 256 255 254 250 248 250 253 254 255 255 257 258 259 258 258 259 262 263 265 266 264 263 261 261 262 261 258 256 256 254 255 252 249 249 249 246 245 247 246 245 245 247 247 244 242 242 244 245 246 248 250
nan nan nan nan nan nan nan nan nan nan 225 nan nan nan nan nan 224 218 218 219 223 220 226 224 246 250 259 259 258 251 245 248 251 250 254 258 260 258 255 nan 254 254 257 258 259 259 260 261 262 264 263 263 265 266 267 268 267 267 266 266 265 262 260 258 255 254 255 256 264 266 255 248 245 244 244 244 246 247 245 242 243 246 248 249 250 252
nan nan nan nan nan nan nan nan nan nan 228 229 223 nan nan nan 232 226 217 219 216 223 225 226 228 244 245 247 250 250 251 253 252 251 256 nan 261 258 nan 261 nan nan 260 264 263 262 262 263 264 264 265 265 265 265 265 266 268 269 269 268 269 270 268 265 263 263 263 261 265 271 268 254 246 245 247 250 250 250 248 245 244 246 249 249 248 249
nan nan nan nan nan nan nan nan nan 239 229 nan nan nan nan nan nan 233 223 217 212 217 229 237 221 218 226 239 241 245 241 240 255 254 258 nan nan nan nan nan nan 261 262 261 263 265 264 263 262 262 263 264 266 267 266 266 265 266 269 270 269 270 272 272 271 270 271 271 270 271 274 267 258 256 258 259 256 252 248 244 245 245 246 247 247 249
nan nan nan nan nan nan nan nan 228 236 224 nan 212 219 214 210 231 229 nan 224 220 221 216 220 221 227 232 229 228 225 237 253 256 257 257 nan 261 261 nan nan nan nan nan 264 263 261 260 261 262 262 261 260 262 nan nan nan nan nan 264 266 269 271 271 272 272 nan nan nan nan nan nan nan nan 277 278 276 270 261 nan 251 246 244 245 246 249 251
nan nan 219 212 211 nan 228 nan nan nan 219 nan 207 228 222 227 nan 225 232 231 238 237 228 227 232 241 240 238 236 239 234 242 255 259 258 259 263 262 nan nan nan nan nan nan nan 262 263 262 261 259 258 255 253 254 256 nan nan nan nan 262 nan nan nan nan nan nan nan nan nan nan nan nan nan nan nan nan 277 276 273 270 nan nan nan nan nan nan
214 218 224 224 218 221 nan nan nan 224 217 nan 219 223 223 229 233 229 230 236 241 248 247 240 240 242 241 235 237 242 249 264 267 263 nan 263 263 262 nan nan nan nan nan nan nan nan 255 255 255 254 254 253 251 250 249 nan nan nan nan nan nan nan nan nan nan nan nan nan nan nan nan nan nan nan nan nan nan 277 277 278 280 277 266 nan nan nan
213 227 232 237 221 226 229 229 226 223 nan nan 227 228 227 225 225 228 234 234 237 243 251 253 255 253 255 260 259 247 244 243 243 245 264 nan nan nan nan nan nan nan nan nan nan nan 254 255 255 256 255 251 250 247 nan nan nan nan nan nan nan nan nan nan nan nan nan nan nan nan nan nan nan nan nan nan nan nan nan nan nan nan nan nan nan nan
240 248 246 244 245 243 234 229 231 230 232 235 231 227 225 228 224 221 233 235 234 238 247 254 263 269 267 264 267 262 255 nan 248 251 241 nan nan 258 nan nan nan nan nan nan nan nan nan nan nan 257 256 254 253 251 nan 249 249 249 nan nan nan nan nan nan nan nan nan nan nan nan nan nan nan nan nan nan nan nan nan nan nan nan nan nan nan nan
261 265 245 243 251 237 236 233 236 234 234 237 241 234 231 228 229 229 229 234 239 240 242 242 252 264 265 264 266 261 264 271 279 269 266 nan 257 nan nan nan nan nan nan nan nan nan nan nan nan nan nan nan nan 252 250 nan nan nan nan nan nan nan nan nan nan nan nan nan nan nan nan nan nan nan nan nan nan nan nan nan nan nan nan nan nan nan
nan nan 247 nan 234 227 243 244 240 235 230 230 232 234 233 229 230 231 232 235 237 241 240 238 232 254 266 267 257 259 257 259 263 262 nan 257 258 nan nan nan nan nan nan nan nan nan nan nan nan nan nan nan nan nan nan nan nan nan nan nan nan nan nan nan nan nan nan nan nan nan nan nan nan nan nan nan nan nan nan nan nan nan nan nan nan nan
nan nan nan 261 246 242 246 250 245 244 235 231 231 236 238 234 231 233 233 239 241 236 241 241 243 238 248 251 259 257 258 260 257 252 249 250 256 258 nan 264 nan nan nan nan nan nan nan nan nan nan nan nan nan nan nan nan nan nan nan nan nan nan nan nan nan nan nan nan nan nan nan nan nan nan nan nan nan nan nan nan nan nan nan nan nan nan
220 229 nan 274 nan nan nan 252 246 nan 238 233 228 229 237 243 244 239 236 238 242 245 237 237 244 248 246 250 245 249 253 255 261 264 263 262 262 262 264 269 nan nan nan nan nan nan nan nan nan nan nan nan nan nan nan nan nan nan nan nan nan nan nan nan nan nan nan nan nan nan nan nan nan nan nan nan nan nan nan nan nan nan nan nan nan nan
247 224 227 235 243 260 248 251 256 258 248 240 234 229 233 236 239 242 240 239 242 247 254 256 258 262 261 256 258 266 264 263 267 269 268 266 266 265 265 265 nan nan nan nan nan nan nan nan nan nan nan nan nan nan nan nan nan nan nan nan nan nan nan nan nan nan nan nan nan nan nan nan nan nan nan nan nan nan nan nan nan nan nan nan nan nan